This is the latest recevied weather packets stored in our database for station/object N9BLE. If no packets are shown the sender has not sent any weather packets the latest 10 day(s).
| Time | Temp. | Humidity | Pressure | Rain* | Wind** | Luminosity | Snow |
|---|---|---|---|---|---|---|---|
| 1777906302 | 18.89° C | 52% | 1006.5 hPa | 0 mm | - | 57 W/m² | - |
| 1777906000 | 18.33° C | 54% | 1006.4 hPa | 0 mm | - | 166 W/m² | - |
| 1777905696 | 18.33° C | 52% | 1006.3 hPa | 0 mm | - | 48 W/m² | - |
| 1777905393 | 17.78° C | 57% | 1006.5 hPa | 0 mm | - | 49 W/m² | - |
| 1777905091 | 17.78° C | 57% | 1006.6 hPa | 0 mm | - | 46 W/m² | - |
| 1777904788 | 17.78° C | 57% | 1006.6 hPa | 0 mm | - | 47 W/m² | - |
| 1777904485 | 17.22° C | 60% | 1006.6 hPa | 0 mm | - | 47 W/m² | - |
| 1777904181 | 16.67° C | 62% | 1006.8 hPa | 0 mm | - | 45 W/m² | - |
| 1777903879 | 16.11° C | 63% | 1006.9 hPa | 0 mm | - | 140 W/m² | - |
| 1777903575 | 15.56° C | 64% | 1007 hPa | 0 mm | - | 45 W/m² | - |
| 1777903271 | 15.56° C | 68% | 1007 hPa | 0 mm | - | 48 W/m² | - |
| 1777902968 | 15° C | 68% | 1007 hPa | 0 mm | - | 57 W/m² | - |
| 1777902664 | 15° C | 70% | 1006.8 hPa | 0 mm | - | 43 W/m² | - |
| 1777902362 | 14.44° C | 70% | 1007 hPa | 0 mm | - | 55 W/m² | - |
| 1777902058 | 13.89° C | 72% | 1007.1 hPa | 0 mm | - | 43 W/m² | - |
| 1777901757 | 13.89° C | 72% | 1007 hPa | 0 mm | - | 93 W/m² | - |
| 1777901454 | 13.89° C | 74% | 1007.2 hPa | 0 mm | - | 44 W/m² | - |
| 1777901151 | 13.33° C | 74% | 1007.2 hPa | 0 mm | - | 54 W/m² | - |
| 1777900849 | 13.33° C | 75% | 1007.4 hPa | 0 mm | - | 90 W/m² | - |
| 1777900546 | 12.78° C | 75% | 1007.3 hPa | 0 mm | - | 79 W/m² | - |
| 1777900243 | 12.78° C | 77% | 1007.6 hPa | 0 mm | - | 51 W/m² | - |
| 1777899939 | 12.78° C | 76% | 1007.4 hPa | 0 mm | - | 41 W/m² | - |
| 1777899637 | 12.22° C | 77% | 1007.5 hPa | 0 mm | - | 107 W/m² | - |
| 1777899334 | 12.22° C | 77% | 1007.5 hPa | 0 mm | - | 196 W/m² | - |
| 1777899032 | 11.67° C | 78% | 1007.6 hPa | 0 mm | - | 182 W/m² | - |
* Rain latest hour (hover to see other rain measurements)
** Current wind speed in m/s (hover to see current wind gust speed)